Walla Walla, WA
on Saturday, December 22, 2012

Saturday
Previous Day Next Day
Daily Summary
 ActualAverage (KPDT)Record (KPDT)
Temperature
Mean Temperature °F 32°F  
Max Temperature 53°F 39°F 68°F (1933)
Min Temperature 37°F 26°F -15°F (1983)
Degree Days
Heating Degree Days 20 33  
Month to date heating degree days 694  
Since 1 July heating degree days 1947  
Cooling Degree Days 0 0  
Month to date cooling degree days 0  
Year to date cooling degree days 636  
Moisture
Dew Point 31°F   
Average Humidity 57    
Maximum Humidity 82    
Minimum Humidity 35    
Precipitation
Precipitation 0.06 in 0.05 in 0.60 in (1892)
Month to date precipitation 1.06  
Year to date precipitation 12.25  
Snow
Snow 0.00 in 0.20 in 1.40 in (1987)
Month to date snowfall 4.1  
Year to date snowfall 13.3  
Since 1 July snowfall 5.6  
Snow Depth in   
Wind
Wind Speed 14 mph   
Max Wind Speed 30 mph   
Max Gust Speed 41 mph   
Visibility 9 miles   
Events Rain   

Key: T is trace of precipitation, MM is missing value
Source: NWS Daily Summary
Time(PST)TemperatureDew PointHumidity Pressure Visibility Wind DirectionWind SpeedGust SpeedPrecipitationEvents Conditions
12:53 AM 51.1°F 27.0°F 39% 29.73 in 10.0 miles SSE 19.6 mph 25.3 mph N/A   Clear
1:53 AM 50.0°F 26.1°F 39% 29.71 in 10.0 miles SSE 19.6 mph 24.2 mph N/A   Clear
2:53 AM 52.0°F 25.0°F 35% 29.70 in 10.0 miles South 10.4 mph - N/A   Overcast
3:53 AM 50.0°F 28.0°F 43% 29.68 in 10.0 miles Calm Calm - N/A   Overcast
4:53 AM 50.0°F 28.9°F 44% 29.64 in 10.0 miles South 9.2 mph - N/A   Scattered Clouds
5:53 AM 46.9°F 28.9°F 50% 29.64 in 10.0 miles NNW 5.8 mph - N/A   Overcast
6:53 AM 48.0°F 28.9°F 48% 29.62 in 10.0 miles Variable 5.8 mph - N/A   Overcast
7:53 AM 48.9°F 27.0°F 43% 29.58 in 10.0 miles ENE 8.1 mph - N/A   Overcast
8:35 AM 53.6°F 28.4°F 38% 29.55 in 10.0 miles SSE 19.6 mph 31.1 mph N/A   Overcast
8:53 AM 53.1°F 26.1°F 35% 29.54 in 10.0 miles SSE 28.8 mph 41.4 mph N/A   Overcast
9:53 AM 51.1°F 28.9°F 43% 29.59 in 10.0 miles SSE 29.9 mph 41.4 mph 0.00 in Rain Light Rain
10:53 AM 51.1°F 28.0°F 41% 29.59 in 10.0 miles SW 27.6 mph 36.8 mph 0.00 in   Overcast
11:53 AM 52.0°F 27.0°F 38% 29.58 in 10.0 miles SSW 9.2 mph 34.5 mph N/A   Overcast
12:53 PM 44.1°F 39.0°F 82% 29.66 in 4.0 miles SSW 17.3 mph - 0.00 in Rain Rain
1:04 PM 44.6°F 39.2°F 81% 29.66 in 3.0 miles South 17.3 mph - 0.02 in Rain Light Rain
1:30 PM 44.6°F 37.4°F 76% 29.64 in 10.0 miles SSE 20.7 mph 26.5 mph 0.03 in Rain Light Rain
1:53 PM 45.0°F 36.0°F 71% 29.65 in 10.0 miles SSE 21.9 mph 27.6 mph 0.03 in   Overcast
2:53 PM 45.0°F 35.1°F 68% 29.66 in 10.0 miles SSE 20.7 mph - N/A   Overcast
3:53 PM 46.9°F 33.1°F 59% 29.68 in 10.0 miles SSE 15.0 mph - N/A   Overcast
4:53 PM 46.9°F 32.0°F 56% 29.70 in 10.0 miles South 11.5 mph - N/A   Mostly Cloudy
5:33 PM 42.8°F 35.6°F 76% 29.75 in 7.0 miles West 18.4 mph 31.1 mph 0.02 in Rain Light Rain
5:40 PM 42.8°F 33.8°F 70% 29.74 in 6.0 miles West 9.2 mph - 0.03 in Rain Rain
5:53 PM 41.0°F 35.1°F 79% 29.73 in 10.0 miles ESE 6.9 mph - 0.03 in Rain Light Rain
6:53 PM 41.0°F 33.1°F 73% 29.74 in 10.0 miles ESE 10.4 mph - 0.00 in   Clear
7:53 PM 42.1°F 33.1°F 70% 29.76 in 10.0 miles SSE 5.8 mph - 0.00 in   Scattered Clouds
8:53 PM 37.0°F 30.9°F 79% 29.79 in 10.0 miles Calm Calm - N/A   Clear
9:53 PM 39.0°F 28.9°F 67% 29.81 in 10.0 miles Calm Calm - N/A   Partly Cloudy
10:53 PM 39.0°F 28.0°F 65% 29.83 in 10.0 miles Calm Calm - N/A   Overcast
11:53 PM 43.0°F 27.0°F 53% 29.83 in 10.0 miles South 11.5 mph 20.7 mph N/A   Mostly Cloudy
Moon Phase
Dec. 22 Dec. 28 Jan. 04 Jan. 11 Jan. 18
Sunrise:07:33 AM (PST) Moon Rise:12:40 PM (PST)12/22
Sunset:04:11 PM (PST) Moon Set:02:12 AM (PST)12/22

Copyright © 2014 The Weather Underground, Inc.